星链-1422 (STARLINK-1422 )

导读 | 豆包AI

STARLINK-1422是美国太空探索技术公司 SpaceX 星链星座中的一颗卫星,于2020年6月4日发射入轨,属于星链低轨互联网星座组网卫星。星链计划旨在为全球提供高覆盖、低延迟的宽带互联网服务,该卫星承担了补充星座网络覆盖、增强空间通信容量的任务,服务全球卫星互联网组网布局。

Basic Information
目录编号:
45696
目录名称:
STARLINK-1422
国际标识:
2020-035AR
轨道中心:
EARTH
卫星名称:
星链-1422
卫星全名:
星链-1422 (STARLINK-1422 )
卫星状态:
在轨 (已飞行2155 天)
发射日期:
2020-06-04 UTC
国别 :
美国 (US)
星等 :
--
Orbit Information
数据来源 国际轨道数据 AOE轨道数据
星历时间 2026-04-29T04:36:44+0800
4小时前
查看轨道信息
2026-04-24T08:00:00+0800
5天前
查看轨道信息
半长轴 6848.383km 6849.543km
偏心率 0.000294 0.0001993
轨道倾角 53.156° 53.156°
近地点辐角 29.974° 45.311°
升交点赤经 176.413° 199.037°
平近点角 330.143° 148.276°
近地点 468.232km 470.04km
远地点 472.26km 472.772km
周期 94.003分钟 94.027分钟
每日圈数 15.318659 15.314767
Detailed Information
固有亮度:
5
最大亮度:
2.5
卫星平台:
Starlink V1.0
覆盖范围:
全球
运营商:
太空探索技术公司
运营商所在国:
美国
制造商(研发单位):
太空探索技术公司
制造商所在国:
美国
使用方式:
暂无
Satellite Introduction
星链(Starlink)计划是由太空探索技术公司(SpaceX)提出的一个巨型低轨卫星互联网星座项目,计划在2019年至2024年间在太空搭建由约1.2万颗卫星组成的“星链”网络,其中1584颗将部署在地球上空550千米处的近地轨道,并从2020年开始工作。该卫星仍在工作。
2D Orbit Map
3D Orbit Map
Orbit Altitude Analysis Chart
Orbit Inclination Analysis Chart
Orbit Comprehensive Analysis Chart
View Comprehensive Chart